Starlink 33556

operational
NORAD ID: 62109 Int'l Des: 2024-220 Owner: SPXS Country: US Constellation: starlink
LEOCIRCULAR

关于 Starlink 33556

正在加载描述...

实时位置

正在加载3D地球...

即将过境

高度历史

Altitude vs Time

uPlot chart will show altitude changes over time

两行轨道根数

1 62109U 24220X 26036.97800389 .00042083 00000-0 15301-2 0 9998
2 62109 42.9955 24.4309 0000338 322.7620 37.3208 15.27579236 68365
Epoch: Feb 5, 2026 • Age: 13 hours

当前状态

高度 482.2 km
速度 7.63 km/s
星下点 7.40°N, 134.77°W
发射日期 Nov 25, 2024
运行时间 1.1 years
类型 internet

技术详情

分类 Payload
质量 530.00 kg
干质量 500.00 kg
总质量 530.00 kg
长度 0.30 m
直径 4.10 m
跨度 29.00 m
形状 Box + pan
制造商 SPXS
平台类型 Starlink V2MO
阶段状态 In Orbit
所有者/国家 SPXS/US

大型星座

Loading constellations...